Theta_e
295 290 288 292 293 295 294 294 293 296 292 291 293 294 297 301 299 299 300 301 301 300 302 303 303 305 310 314 311 307 305 305 305 304 304 304 303 304 304 306 306 305 305 305
291 288 295 297 295 294 292 291 293 295 292 290 293 293 297 299 300 301 301 301 300 299 298 299 301 303 305 306 307 305 304 303 303 304 304 304 304 303 304 305 304 304 304 304
291 294 293 295 292 290 291 291 292 292 291 291 290 291 295 300 299 300 299 297 298 298 297 297 299 301 304 304 303 302 302 302 302 302 302 303 303 303 303 303 304 303 303 302
292 296 292 291 291 292 288 295 293 292 289 289 290 287 295 299 297 294 295 295 296 296 297 297 298 301 302 302 302 301 301 301 302 303 303 303 301 300 301 302 302 302 302 301
292 290 288 290 292 293 291 291 290 290 289 287 289 286 291 297 296 295 295 295 296 296 296 296 298 300 301 301 301 301 301 302 302 302 302 302 301 301 301 301 301 301 301 300
291 290 291 291 288 291 291 289 288 288 287 281 286 287 289 294 295 297 296 294 294 295 296 297 299 299 299 301 300 301 301 301 301 301 301 301 300 299 299 299 299 299 299 299
291 289 290 290 286 288 289 287 283 280 279 281 290 285 290 296 296 296 293 293 294 295 295 297 296 296 298 298 299 301 300 299 300 300 300 300 299 299 298 298 298 297 297 298
284 283 289 289 289 288 285 287 286 280 282 285 282 280 289 293 295 294 295 294 294 294 295 295 296 297 297 298 299 299 300 298 299 300 299 299 299 299 299 298 297 297 296 297
283 284 288 287 290 290 286 283 290 284 276 280 286 287 292 291 290 291 292 293 293 294 295 295 296 297 297 298 298 299 299 298 298 299 299 298 298 298 297 297 297 297 297 296
285 281 286 286 288 288 286 289 281 282 278 277 284 285 288 288 288 289 290 291 293 294 295 295 296 297 298 298 298 300 299 298 298 299 298 298 297 297 297 297 296 296 296 296
286 284 282 284 283 283 283 282 283 285 284 280 280 285 292 290 292 290 291 292 293 293 294 295 296 297 297 297 297 298 297 297 297 297 297 296 296 296 296 296 296 295 295 295
287 283 280 283 287 286 287 284 285 280 279 283 282 284 291 291 293 292 292 292 294 294 294 295 296 296 295 295 296 296 296 296 296 296 296 296 296 296 295 295 295 295 294 293
285 281 278 280 283 284 282 284 285 285 284 281 279 283 291 290 291 292 292 293 293 294 294 295 295 295 294 294 295 295 295 295 295 295 295 295 295 295 295 294 293 293 292 292
287 282 280 277 280 283 279 283 285 283 279 280 283 286 291 289 288 290 292 293 293 293 292 294 293 293 294 294 293 293 294 295 294 294 294 295 295 295 294 293 292 293 293 292
284 278 281 282 283 282 282 281 282 281 282 280 285 286 290 293 290 290 292 293 292 291 291 292 292 293 294 294 294 294 294 294 294 293 293 294 295 294 293 292 293 293 292 291
283 278 278 277 280 281 279 282 283 283 284 284 285 285 293 290 290 290 291 291 291 290 290 290 292 294 292 293 293 293 293 293 293 292 293 293 293 292 292 292 292 292 291 291
279 278 277 274 277 276 273 277 281 283 285 284 280 286 289 287 287 288 290 290 290 291 291 290 292 292 292 292 293 292 293 293 292 293 292 292 292 291 292 292 291 290 290 289
277 277 276 272 274 268 280 285 285 283 285 287 286 287 289 289 290 291 293 292 292 290 291 291 291 291 292 294 293 294 293 291 290 289 291 291 291 290 290 290 288 288 288 287
282 278 273 270 271 275 277 282 282 281 281 287 286 289 289 290 287 288 292 295 294 290 291 291 291 290 291 290 292 290 289 287 286 285 285 286 287 286 287 286 285 288 287 286
279 280 275 273 268 266 276 283 286 285 276 286 287 287 287 286 281 286 291 292 292 290 288 289 290 289 288 287 288 287 286 285 283 284 285 285 284 284 284 285 284 287 286 285
272 274 271 272 270 274 281 284 285 273 277 286 286 287 287 285 287 291 290 289 291 288 287 288 287 287 287 286 287 285 285 284 285 284 284 283 284 283 285 285 284 286 285 285
270 269 270 272 269 267 283 283 277 282 286 287 287 287 286 287 289 290 290 288 289 286 284 286 285 285 285 286 286 284 283 284 284 283 282 283 283 284 284 284 284 284 284 284
269 273 272 273 273 280 281 282 284 283 283 285 286 287 286 286 286 287 288 288 288 287 284 284 284 284 284 285 286 284 284 283 282 282 282 283 284 284 284 283 284 284 285 284
275 278 273 273 276 278 281 282 282 286 285 286 287 287 288 287 288 286 286 286 285 285 284 283 284 283 282 283 284 284 284 283 282 283 283 284 282 284 284 285 285 285 285 285
276 276 274 274 277 278 279 281 282 284 286 285 286 287 288 288 287 287 286 285 285 285 284 284 284 284 284 283 283 284 283 283 283 284 284 285 285 285 285 285 286 285 286 286
277 275 273 271 278 278 278 281 283 282 284 285 285 285 286 286 285 286 285 286 285 284 284 283 284 283 284 283 283 284 284 282 282 283 284 285 286 287 286 285 285 287 287 287
Wind_Speed
6 9 13 17 18 17 7 9 11 5 4 5 14 17 18 14 16 16 16 14 11 11 7 7 8 13 13 13 15 15 13 13 10 8 7 6 6 5 4 4 4 4 5 5
5 16 17 10 9 14 13 13 13 11 4 4 13 19 19 19 17 18 17 15 11 9 9 10 11 12 14 15 15 14 13 13 9 7 5 4 5 3 3 3 3 4 4 5
18 3 1 12 10 13 15 16 12 7 3 11 9 17 18 18 9 14 11 11 9 10 11 12 13 13 14 15 15 14 13 12 9 8 6 5 4 4 4 2 2 3 4 4
15 20 8 8 14 13 14 12 14 10 3 5 2 11 13 6 10 11 12 11 11 10 9 13 14 15 15 13 13 13 12 11 9 7 6 4 2 2 3 1 2 2 3 4
6 5 11 16 17 12 6 2 7 8 7 2 8 5 6 7 13 15 14 12 10 10 11 14 15 15 15 13 12 12 12 10 9 7 6 4 4 3 2 1 2 2 2 3
18 2 5 4 3 7 11 8 6 3 4 7 10 10 24 17 18 15 14 11 11 12 13 14 15 15 14 12 12 11 12 10 8 7 6 6 5 3 1 2 2 2 2 3
15 21 7 6 6 5 12 11 4 6 7 11 4 11 20 4 6 7 14 14 13 13 15 16 16 15 14 13 12 11 11 10 8 8 7 6 5 3 2 2 2 4 3 4
7 7 20 16 17 11 18 14 9 11 11 11 3 11 9 1 2 4 11 13 14 15 15 16 16 14 14 13 12 11 10 10 8 8 7 5 4 2 1 2 3 3 4 4
5 8 5 4 6 9 11 15 12 3 1 4 7 10 12 8 7 8 13 16 17 17 16 17 15 14 13 12 12 11 10 9 8 7 6 5 3 3 2 2 3 3 5 5
6 9 5 6 5 7 7 2 7 3 7 8 9 7 11 10 13 13 16 17 17 17 16 15 14 14 12 11 10 10 9 9 8 7 5 4 3 2 1 2 3 4 5 6
9 7 2 1 10 13 8 7 6 4 9 4 6 4 7 4 11 16 17 17 18 17 16 15 13 12 11 10 10 9 9 9 8 6 5 4 3 1 2 2 3 4 5 6
2 5 5 6 2 5 11 13 16 7 5 10 4 6 3 5 4 12 14 15 16 16 15 14 12 11 10 10 10 10 9 8 7 6 6 5 4 3 2 2 3 4 5 6
1 4 4 5 3 3 7 12 14 12 3 8 7 8 4 3 5 9 12 12 13 14 13 12 11 10 10 10 10 9 9 8 7 7 6 6 5 4 2 2 3 4 5 6
5 6 9 9 7 3 4 11 15 15 6 11 14 15 10 5 3 8 10 12 13 12 12 11 10 10 9 8 9 9 8 8 8 7 7 6 5 3 2 2 3 4 5 6
4 8 11 15 16 13 11 8 10 15 18 9 13 19 18 12 4 10 5 8 11 12 14 13 11 11 11 10 9 8 8 8 8 8 7 6 5 3 2 2 3 4 5 6
6 7 8 15 14 14 17 17 16 18 21 20 23 23 15 2 5 3 9 11 8 10 11 10 11 11 11 11 10 9 9 8 8 7 6 5 5 4 3 3 3 4 5 6
8 5 4 10 8 5 9 19 21 20 20 20 20 20 7 6 7 8 7 9 11 9 9 12 12 10 10 10 10 10 9 8 8 7 6 5 4 4 4 3 4 5 6 7
14 13 9 9 10 11 7 13 17 22 22 19 18 17 13 9 9 9 10 12 13 11 9 10 8 7 8 8 8 8 7 7 6 5 5 5 5 4 3 2 4 4 6 6
16 14 8 8 11 14 22 10 6 9 16 11 15 15 15 11 3 14 9 12 16 13 15 13 9 7 8 9 9 9 6 6 6 6 6 5 4 4 4 6 5 4 5 6
4 11 12 12 16 17 10 10 5 9 11 8 11 13 12 6 7 14 9 16 12 7 6 10 10 6 9 9 10 10 8 7 7 6 6 5 5 5 5 5 5 3 6 7
9 8 13 13 14 12 16 14 7 10 5 7 6 8 9 8 13 10 2 4 1 4 7 4 6 11 12 11 12 11 9 10 7 5 5 5 5 5 5 3 4 5 6 6
13 10 12 12 15 17 10 14 11 14 14 15 10 10 8 12 13 8 8 5 5 5 4 7 8 9 9 13 13 11 11 7 6 6 5 5 5 4 4 5 4 4 5 8
8 10 11 8 8 18 22 16 13 13 15 17 11 10 9 9 9 7 8 8 8 5 4 4 7 9 9 11 11 12 8 8 7 6 6 4 4 4 3 3 4 4 6 6
18 18 14 17 17 20 17 21 17 12 12 13 13 12 7 14 13 11 7 7 5 4 6 5 8 9 8 7 6 4 8 7 6 5 4 4 4 4 4 4 4 5 6 6
13 15 18 18 18 21 22 20 16 12 7 13 17 12 12 12 14 12 9 7 6 5 4 6 8 9 9 9 7 6 5 6 5 3 3 4 4 5 4 5 5 6 7 7
15 20 16 17 20 19 20 22 18 16 13 9 12 21 15 8 10 8 9 6 5 5 4 5 3 5 6 6 6 6 5 5 4 3 3 4 3 2 3 3 4 12 15 13
Wind_Direction
202 217 218 214 218 241 295 261 255 206 129 246 239 253 265 263 216 242 249 246 235 243 234 226 202 197 180 169 161 155 149 147 144 150 152 150 143 139 124 105 62 42 15 358
191 232 234 237 272 231 238 253 260 273 159 245 269 266 264 261 252 246 253 255 236 221 212 203 185 183 177 165 161 155 147 151 150 152 140 147 142 120 99 102 82 50 6 359
230 203 322 202 213 215 229 236 234 238 215 229 283 271 254 252 240 247 244 252 248 232 205 185 180 178 171 164 155 147 144 140 132 125 129 120 115 136 159 127 69 26 7 348
253 253 206 202 231 216 244 224 240 248 221 246 293 285 271 251 223 214 224 216 221 208 200 181 177 170 164 153 142 135 132 127 126 131 125 137 126 159 78 62 40 350 13 345
221 202 210 229 234 201 247 119 208 227 234 358 195 258 250 243 235 226 214 213 200 187 185 177 176 164 149 139 140 135 130 123 118 110 113 120 110 100 84 71 356 8 360 346
264 360 236 229 78 217 131 122 113 142 142 240 189 199 271 244 232 228 190 191 183 173 169 167 163 145 149 140 139 137 131 122 119 114 108 104 116 108 79 35 6 10 344 342
236 230 189 187 142 160 193 171 175 205 196 239 156 197 249 321 308 283 176 183 176 167 161 155 153 158 150 151 145 141 138 135 134 128 125 119 111 107 78 18 4 344 343 343
244 228 200 204 223 192 202 200 223 244 234 240 142 225 257 343 48 206 177 172 166 166 161 163 163 157 155 151 152 149 149 143 147 141 131 130 121 93 71 42 357 337 332 327
255 241 136 230 216 212 184 224 253 274 172 282 223 243 272 164 185 194 173 170 171 168 164 163 160 158 157 157 159 157 153 149 149 147 148 141 127 105 69 16 346 327 317 323
294 273 203 161 206 229 238 294 185 191 222 231 236 254 247 203 198 189 184 180 172 167 166 162 164 162 160 158 155 153 154 155 153 155 156 147 125 85 27 312 318 313 313 321
192 223 100 168 218 192 187 215 223 275 230 247 267 223 37 16 202 195 188 184 174 169 168 166 165 160 155 153 157 156 154 152 157 162 150 146 150 199 245 267 299 316 323 332
303 313 265 206 36 342 263 232 213 215 222 245 310 283 37 5 241 185 186 183 172 171 170 168 165 161 162 163 163 162 163 165 168 164 164 177 185 206 241 303 320 335 334 338
105 231 256 189 222 178 213 225 241 244 37 238 217 253 50 62 152 178 177 178 166 173 169 168 169 173 173 171 168 170 170 171 167 167 177 186 197 198 216 288 334 335 324 320
266 233 239 273 349 41 205 231 220 218 210 234 229 259 283 60 151 180 183 184 175 176 173 176 175 175 173 171 174 174 170 170 170 176 186 192 194 192 231 315 304 311 314 310
315 246 256 267 280 289 266 271 223 216 236 237 243 246 251 278 194 218 198 181 180 184 181 183 179 177 172 175 174 170 168 171 174 176 183 195 186 191 215 265 301 312 312 309
325 290 328 266 263 254 260 260 257 233 229 235 253 267 283 334 340 207 198 181 191 203 187 184 183 176 173 174 172 170 173 171 171 176 184 175 184 201 227 266 298 309 302 306
286 294 289 271 335 223 242 232 245 253 243 245 249 257 264 243 242 228 227 207 216 207 194 189 190 179 177 174 168 172 173 160 170 172 176 184 193 214 234 263 289 300 306 318
257 260 274 277 312 259 278 276 267 245 244 240 245 261 258 240 246 242 224 217 218 207 207 215 195 179 182 174 167 154 165 157 159 161 182 187 194 207 213 238 279 297 298 311
230 245 258 254 256 295 308 295 293 255 261 257 255 252 253 272 359 268 238 236 234 210 210 209 193 184 164 166 165 150 148 146 157 182 198 200 189 195 200 233 239 263 282 283
274 255 245 256 263 266 281 299 13 329 268 277 257 250 253 142 233 255 225 224 235 196 190 197 195 175 167 179 150 150 166 166 187 193 202 187 189 200 206 213 240 240 267 280
281 269 259 264 261 260 274 280 278 252 291 347 326 264 259 221 235 278 342 290 281 199 204 151 165 184 189 162 155 165 161 191 186 162 174 181 195 200 201 210 238 252 267 285
275 275 273 264 261 268 281 278 258 333 326 304 301 298 281 255 264 271 251 251 250 235 199 198 183 184 165 164 159 163 180 174 154 161 177 190 193 189 206 225 258 259 264 284
261 255 270 257 283 315 309 290 320 312 296 306 330 334 329 296 281 290 262 264 260 225 196 179 187 161 160 162 164 163 184 152 155 174 193 178 175 188 195 216 251 265 264 269
259 261 268 273 273 275 282 299 306 354 354 311 289 274 276 302 311 296 277 261 245 219 196 168 158 161 153 153 157 132 144 148 160 190 178 174 187 203 203 204 204 230 246 252
266 285 278 273 270 274 276 276 281 291 316 313 310 293 284 264 280 287 279 246 219 198 174 169 173 165 166 164 165 140 149 152 172 183 154 187 209 206 205 217 216 220 229 221
253 256 256 261 260 262 270 281 281 287 275 261 300 298 292 254 255 274 256 232 181 181 165 153 136 136 137 142 145 149 152 153 147 194 198 207 200 197 210 241 266 228 242 243